sat.trackr.live / text

‹ back to catalog

STARLINK-35741

NORAD 66272 · 2025-247H

PAYLOAD ACTIVE UNKNOWN

§ Identity

Operator
Country
US
Launch date
2025-10-31
Launch site
AFWTR
Launch vehicle
Mass (kg)
RCS (m²)

Purposes: comms

External: N2YO · Heavens-Above · Gunter

§ Orbital elements

Epoch: 2026-09-20T12:57:16.520256Z

Period
93.85 min
Inclination
53.1597°
Eccentricity
0.0000913
Mean motion
15.34408616 rev/d
Perigee alt
462.1 km
Apogee alt
463.3 km
Semi-major
6,840.8 km
B*
7.1639e-4
RAAN
1.5952°
Arg perigee
75.9291°
Mean anomaly
284.1813°
Rev number
5,098

§ Raw data

STARLINK-357411 66272U 25247H   26263.53977454  .00023912  00000+0  71639-3 0  99912 66272  53.1597   1.5952 0000913  75.9291 284.1813 15.34408616 50980

JSON: /api/v1/satellites/66272 · /tle

For live sub-satellite position, see the globe view (requires WebGL).

§ Visibility from observer

Set your observer location to see the next 7 days of passes ≥ 10°. The values pass through the URL so the page stays shareable.

No JS? Fill the form by hand. The geolocation button needs JavaScript.